SXN39 ZZZZ-EGKA

Flight info

Callsign SXN39
Flight time N/A
Altitude 21000
Route BRENT RESERVOIR DCT
Aircraft A139/L-VGD/C

Departure

Time N/A
Airport ZZZZ

Arrival

Time 2026-04-30 20:08
Airport Brighton City Airport (EGKA)
Time Latitude Longitude Altitude Speed Heading
2026-04-30 19:38 51.62317 -0.22621 304 ft 0 kts 209°
2026-04-30 19:42 51.62316 -0.22623 310 ft 1 kts 194°
2026-04-30 19:42 51.62314 -0.22625 318 ft 0 kts 57°
2026-04-30 19:42 51.62318 -0.22634 409 ft 7 kts 61°
2026-04-30 19:43 51.62443 -0.22292 651 ft 64 kts 59°
2026-04-30 19:43 51.62374 -0.21566 999 ft 81 kts 109°
2026-04-30 19:43 51.62297 -0.20666 1304 ft 86 kts 97°
2026-04-30 19:44 51.61946 -0.18815 1726 ft 94 kts 142°
2026-04-30 19:44 51.61230 -0.18857 1710 ft 119 kts 202°
2026-04-30 19:44 51.60651 -0.20040 1766 ft 143 kts 227°
2026-04-30 19:44 51.59964 -0.21164 1693 ft 144 kts 204°
2026-04-30 19:45 51.59130 -0.22101 1553 ft 147 kts 202°
2026-04-30 19:45 51.58253 -0.22868 1504 ft 141 kts 187°
2026-04-30 19:45 51.57320 -0.23024 1506 ft 131 kts 165°
2026-04-30 19:45 51.56414 -0.22890 1503 ft 131 kts 163°
2026-04-30 19:46 51.55500 -0.22743 1528 ft 131 kts 163°
2026-04-30 19:46 51.54591 -0.22616 1521 ft 132 kts 164°
2026-04-30 19:46 51.53682 -0.22495 1524 ft 132 kts 164°
2026-04-30 19:46 51.52764 -0.22277 1505 ft 133 kts 157°
2026-04-30 19:47 51.51869 -0.21934 1516 ft 133 kts 157°
2026-04-30 19:47 51.51261 -0.21700 1534 ft 133 kts 156°
2026-04-30 19:47 51.50155 -0.20966 1541 ft 128 kts 141°
2026-04-30 19:47 51.49387 -0.20244 1536 ft 128 kts 141°
2026-04-30 19:48 51.48711 -0.19336 1531 ft 125 kts 124°
2026-04-30 19:48 51.48159 -0.18271 1529 ft 125 kts 123°
2026-04-30 19:48 51.47606 -0.17186 1535 ft 124 kts 123°
2026-04-30 19:48 51.46914 -0.16331 1543 ft 129 kts 141°
2026-04-30 19:49 51.45997 -0.16119 1509 ft 144 kts 180°
2026-04-30 19:49 51.44093 -0.17110 1525 ft 145 kts 187°
2026-04-30 19:49 51.43129 -0.17633 1518 ft 145 kts 188°
2026-04-30 19:50 51.42167 -0.18162 1520 ft 145 kts 188°
2026-04-30 19:50 51.41219 -0.18687 1530 ft 145 kts 188°
2026-04-30 19:50 51.40255 -0.19218 1525 ft 146 kts 188°
2026-04-30 19:50 51.39297 -0.19748 1528 ft 146 kts 188°
2026-04-30 19:51 51.38330 -0.20283 1530 ft 146 kts 188°
2026-04-30 19:51 51.37368 -0.20815 1534 ft 146 kts 188°
2026-04-30 19:51 51.36404 -0.21350 1533 ft 146 kts 188°
2026-04-30 19:51 51.35443 -0.21882 1531 ft 146 kts 188°
2026-04-30 19:52 51.34475 -0.22414 1528 ft 146 kts 188°
2026-04-30 19:52 51.33512 -0.22946 1521 ft 146 kts 188°
2026-04-30 19:52 51.32553 -0.23476 1523 ft 146 kts 188°
2026-04-30 19:52 51.31603 -0.24000 1529 ft 146 kts 189°
2026-04-30 19:53 51.30639 -0.24531 1517 ft 146 kts 188°
2026-04-30 19:53 51.29673 -0.25072 1626 ft 149 kts 194°
2026-04-30 19:53 51.28765 -0.25919 1851 ft 151 kts 204°
2026-04-30 19:53 51.27884 -0.26791 2102 ft 150 kts 204°
2026-04-30 19:54 51.26999 -0.27678 2171 ft 149 kts 200°
2026-04-30 19:54 51.26111 -0.28539 2134 ft 152 kts 201°
2026-04-30 19:54 51.25351 -0.29806 2133 ft 158 kts 220°
2026-04-30 19:54 51.24653 -0.31169 2136 ft 159 kts 223°
2026-04-30 19:55 51.24096 -0.32704 2134 ft 162 kts 233°
2026-04-30 19:55 51.23553 -0.34277 2145 ft 159 kts 227°
2026-04-30 19:55 51.22814 -0.35564 2115 ft 156 kts 215°
2026-04-30 19:55 51.22045 -0.36803 2119 ft 157 kts 214°
2026-04-30 19:56 51.21286 -0.38022 2124 ft 156 kts 214°
2026-04-30 19:56 51.20516 -0.39251 2087 ft 158 kts 214°
2026-04-30 19:56 51.19744 -0.40486 2098 ft 157 kts 214°
2026-04-30 19:56 51.18978 -0.41715 2123 ft 155 kts 214°
2026-04-30 19:57 51.18160 -0.42789 2094 ft 147 kts 193°
2026-04-30 19:57 51.17210 -0.43208 2105 ft 137 kts 172°
2026-04-30 19:57 51.16267 -0.43131 2123 ft 134 kts 164°
2026-04-30 19:57 51.15342 -0.43017 2128 ft 133 kts 163°
2026-04-30 19:58 51.14417 -0.42894 2106 ft 134 kts 163°
2026-04-30 19:58 51.13492 -0.42771 2112 ft 133 kts 163°
2026-04-30 19:58 51.12564 -0.42645 2092 ft 134 kts 163°
2026-04-30 19:58 51.11633 -0.42512 2092 ft 133 kts 162°
2026-04-30 19:59 51.10741 -0.42185 2105 ft 131 kts 155°
2026-04-30 19:59 51.09862 -0.41833 2113 ft 130 kts 154°
2026-04-30 19:59 51.08119 -0.41128 2107 ft 128 kts 155°
2026-04-30 20:00 51.07252 -0.40775 2106 ft 128 kts 154°
2026-04-30 20:00 51.06380 -0.40423 2076 ft 130 kts 154°
2026-04-30 20:00 51.05509 -0.40068 2088 ft 130 kts 155°
2026-04-30 20:00 51.04645 -0.39718 2087 ft 130 kts 154°
2026-04-30 20:01 51.02865 -0.39097 2124 ft 130 kts 160°
2026-04-30 20:01 51.01958 -0.38880 2109 ft 131 kts 159°
2026-04-30 20:01 51.01056 -0.38665 2117 ft 130 kts 159°
2026-04-30 20:02 50.99243 -0.38240 2121 ft 131 kts 160°
2026-04-30 20:02 50.98329 -0.38025 2107 ft 133 kts 160°
2026-04-30 20:03 50.96544 -0.37516 2122 ft 127 kts 156°
2026-04-30 20:03 50.95675 -0.37219 2075 ft 130 kts 156°
2026-04-30 20:03 50.94793 -0.36917 2083 ft 130 kts 156°
2026-04-30 20:03 50.93908 -0.36620 2092 ft 130 kts 156°
2026-04-30 20:04 50.93028 -0.36318 2124 ft 127 kts 156°
2026-04-30 20:04 50.92139 -0.36014 2098 ft 129 kts 156°
2026-04-30 20:04 50.91272 -0.35717 2107 ft 128 kts 156°
2026-04-30 20:05 50.89497 -0.35114 2116 ft 129 kts 156°
2026-04-30 20:05 50.88645 -0.34824 2147 ft 123 kts 155°
2026-04-30 20:05 50.86956 -0.34234 1834 ft 125 kts 153°
2026-04-30 20:06 50.86095 -0.33930 1648 ft 128 kts 154°
2026-04-30 20:06 50.85212 -0.33683 1557 ft 131 kts 162°
2026-04-30 20:06 50.84327 -0.33547 1412 ft 123 kts 155°
2026-04-30 20:06 50.83584 -0.33100 1173 ft 107 kts 133°
2026-04-30 20:07 50.83139 -0.32326 927 ft 87 kts 108°
2026-04-30 20:07 50.82998 -0.31466 690 ft 78 kts 89°
2026-04-30 20:07 50.83253 -0.30083 350 ft 55 kts 62°
2026-04-30 20:08 50.83396 -0.29663 189 ft 30 kts 74°
2026-04-30 20:08 50.83391 -0.29457 58 ft 11 kts 82°
2026-04-30 20:08 50.83398 -0.29379 17 ft 0 kts 66°
2026-04-30 20:08 50.83398 -0.29375 11 ft 0 kts 67°
2026-04-30 20:09 50.83402 -0.29363 11 ft 3 kts 65°
2026-04-30 20:09 50.83421 -0.29305 11 ft 8 kts 66°
2026-04-30 20:09 50.83460 -0.29060 10 ft 8 kts 127°
2026-04-30 20:10 50.83403 -0.29023 10 ft 0 kts 122°
2026-04-30 20:10 50.83398 -0.29010 10 ft 2 kts 89°